[[{"header":{"parameterUnit":"m.s-1","parameterCategory":1,"la1":30.2991,"la2":30.254,"lo1":-89.0895,"lo2":-89.0444,"dy":0.0017,"dx":0.0017,"nx":28,"ny":28,"refTime":"2024-10-18T09:00:00:Z","depth":0,"parameterNumber":2,"parameterNumberName":"U-component_of_WINDS"},"data":[0,0,0,0,0,0,0,0,0,0,0,0,0,0,0,0,0,0,0,0,0,0,0,0,0,0,0,0,0,0,0,0,0,0,0,0,0,0,0,0,0,0,0,0,0,0,0,0,0,0,0,0,0,0,0,0,0,0,-4.8473,-4.8474,0,-4.854,-4.8541,-4.8542,-4.8359,-4.8353,-4.8348,-4.8342,-4.8414,-4.8421,-4.8428,0,0,0,0,0,0,0,0,0,0,0,0,0,-4.8188,-4.8194,-4.8473,-4.8474,-4.8474,-4.854,-4.8541,-4.8542,-4.836,-4.8353,-4.8346,-4.834,-4.8412,-4.842,-4.8429,0,0,0,0,0,0,0,0,0,0,0,0,0,-4.8289,-4.8196,-4.8473,-4.8391,-4.8385,-4.854,-4.8541,-4.8542,-4.8361,-4.8353,-4.8344,-4.8336,-4.8409,-4.842,-4.843,-4.8668,0,0,-4.8463,-4.8468,0,0,0,0,0,0,0,0,-4.8284,-4.83,-4.8403,-4.8397,-4.839,-4.8432,-4.8467,-4.8584,-4.8364,-4.8371,-4.8342,-4.8332,-4.8427,-4.8436,-4.8468,-4.8671,-4.8674,-4.8464,-4.8471,-4.8475,-4.8479,0,0,0,0,0,0,0,-4.8277,-4.8296,-4.8499,-4.8404,-4.8397,-4.8352,-4.8357,-4.8488,-4.8446,-4.8369,-4.8356,-4.8366,-4.8422,-4.8458,-4.8468,-4.8675,-4.8464,-4.8474,-4.848,-4.8484,-4.9076,-4.9085,0,0,0,0,0,0,-4.828,-4.8291,-4.8497,-4.8501,-4.8315,-4.8364,-4.837,-4.8428,-4.8444,-4.8438,-4.8374,-4.8358,-4.8443,-4.8455,-4.847,-4.8749,-4.8475,-4.8486,-4.8492,-4.9067,-4.9078,-4.9088,0,0,0,0,0,0,-4.8275,-4.83,-4.8494,-4.8393,-4.8414,-4.8378,-4.8445,-4.8433,-4.8468,-4.8447,-4.8439,-4.8417,-4.8437,-4.8455,-4.8619,-4.8749,-4.849,-4.85,-4.9056,-4.907,-4.9083,-4.9309,0,0,0,0,0,0,-4.8267,-4.8299,-4.8389,-4.8396,-4.842,-4.8644,-4.8452,-4.8441,-4.8487,-4.8467,-4.8486,-4.8481,-4.8432,-4.8604,-4.863,-4.8759,-4.8509,-4.9044,-4.9062,-4.9079,-4.929,-4.9329,-4.9363,0,0,0,0,0,-4.8258,-4.8451,-4.8395,-4.842,-4.8532,-4.8651,-4.8665,-4.8603,-4.8498,-4.8588,-4.8575,-4.8481,-4.873,-4.8623,-4.865,-4.8784,-4.9036,-4.9057,-4.9077,-4.9274,-4.9322,-4.9362,0,0,0,0,0,0,-4.8461,-4.845,-4.8388,-4.8589,-4.8622,-4.862,-4.8732,-4.8656,-4.8721,-4.8699,-4.862,-4.8626,-4.8806,-4.8811,-4.8692,-4.9015,-4.8865,-4.8892,-4.9005,-4.905,-4.9086,-4.9081,-4.8518,0,0,0,0,0,-4.8529,-4.8627,-4.8612,-4.8791,-4.8811,-4.8769,-4.8819,-4.8768,-4.88,-4.8814,-4.8812,-4.8847,-4.8933,-4.8991,-4.9069,-4.9289,-4.9291,-4.9395,-4.9431,-4.9461,-4.9486,-4.9603,-4.9649,-4.9156,-4.9156,-4.9156,0,0,-4.8672,-4.8677,-4.8744,-4.8832,-4.8852,-4.8955,-4.8782,-4.8899,-4.8975,-4.8831,-4.8987,-4.8987,-4.9021,-4.9215,-4.93,-4.9224,-4.9622,-4.9487,-4.9511,-4.952,-4.9629,-4.9676,-4.9717,-4.917,-4.9168,-4.9166,0,0,-4.8983,-4.8998,-4.9148,-4.9171,-4.9203,-4.9173,-4.921,-4.9219,-4.9213,-4.9368,-4.9262,-4.9351,-4.9501,-4.9529,-4.9564,-4.9885,-4.9801,-4.9913,-5.0102,-5.0217,-5.0256,-5.029,-5.0405,-5.0447,-4.9937,-4.9938,-4.9938,0,-4.9157,-4.9307,-4.9235,-4.9359,-4.9401,-4.9274,-4.9426,-4.9452,-4.9509,-4.9541,-4.9455,-4.964,-4.9654,-4.9852,-4.993,-4.9962,-5.0001,-4.9911,-5.0256,-5.0289,-5.032,-5.0429,-5.0473,-4.9951,-4.995,-4.9948,-4.9947,0,-4.9519,-4.9625,-4.9742,-4.9799,-4.9854,-4.9992,-4.9941,-5.0005,-4.9949,-4.9929,-5.0088,-5.0099,-5.0178,-5.022,-5.0168,-5.0412,-5.0364,-5.0269,-5.0117,-5.0382,-5.0483,-5.0524,-4.997,-4.9966,-4.9962,-4.9958,0,0,-4.9963,-4.9976,-5.0021,-5.0045,-5.007,-5.0151,-5.0282,-5.0357,-5.0414,-5.0457,-5.0565,-5.0694,-5.0606,-5.0645,-5.0593,-5.0694,-5.0948,-5.0586,-5.0585,-5.0654,-5.1219,-5.1291,-5.1341,-5.0892,-5.09,-5.0906,-5.1216,0,-5.0271,-5.0496,-5.0434,-5.0659,-5.0756,-5.0636,-5.0751,-5.0779,-5.0763,-5.0844,-5.0826,-5.0919,-5.0795,-5.0817,-5.0911,-5.0898,-5.1061,-5.0874,-5.0994,-5.0999,-5.099,-5.1393,-5.1471,-5.1763,-5.1255,-5.1262,-5.1266,0,-5.0661,-5.0718,-5.0952,-5.096,-5.0999,-5.1103,-5.1166,-5.1244,-5.1274,-5.1255,-5.1298,-5.1226,-5.1356,-5.1203,-5.138,-5.1255,-5.13,-5.13,-5.131,-5.132,-5.115,-5.1415,-5.1855,-5.1899,-5.1328,-5.1323,-5.1318,0,-5.0962,-5.1097,-5.1255,-5.1279,-5.1292,-5.1368,-5.1377,-5.1397,-5.1446,-5.1502,-5.1533,-5.1603,-5.1643,-5.1699,-5.1648,-5.1541,-5.1835,-5.1677,-5.1824,-5.1826,-5.1892,-5.1889,-5.2347,-5.192,-5.1919,-5.1919,-5.1918,0,-5.1313,-5.1462,-5.139,-5.1488,-5.165,-5.1577,-5.1741,-5.1736,-5.1755,-5.185,-5.175,-5.1841,-5.1768,-5.1852,-5.1813,-5.1967,-5.1985,-5.1975,-5.1963,-5.1984,-5.1986,-5.2014,-5.1993,-5.193,-5.1928,-5.1925,-5.1923,0,-5.1679,-5.1636,-5.18,-5.1798,-5.1801,-5.1922,-5.192,-5.201,-5.1986,-5.2107,-5.2132,-5.2095,-5.2189,-5.2144,-5.2243,-5.2216,-5.2415,-5.2375,-5.2405,-5.2395,-5.2545,-5.2532,-5.3037,-5.31,-5.2633,-5.2637,-5.2641,0,-5.1906,-5.2017,-5.2027,-5.2083,-5.2098,-5.219,-5.2238,-5.2171,-5.2226,-5.2267,-5.2353,-5.2438,-5.2503,-5.2659,-5.2642,-5.2717,-5.2679,-5.2851,-5.269,-5.2708,-5.2682,-5.2677,-5.2688,-5.2884,-5.2889,-5.2894,-5.2897,0,-5.2315,-5.2288,-5.2362,-5.2429,-5.249,-5.254,-5.2581,-5.2632,-5.2566,-5.2633,-5.2728,-5.2778,-5.2878,-5.2964,-5.3029,-5.3039,-5.2959,-5.2948,-5.2986,-5.301,-5.3023,-5.3018,-5.2494,-5.2937,-5.2933,-5.293,-5.2928,-5.2926,-5.2618,-5.2711,-5.2733,-5.2818,-5.2842,-5.2883,-5.2967,-5.2953,-5.303,-5.3106,-5.3061,-5.3173,-5.3198,-5.3277,-5.3297,-5.3383,-5.3315,-5.337,-5.3384,-5.3399,-5.342,-5.3008,-5.3395,-5.3393,-5.3392,-5.3391,-5.339,0,-5.3022,-5.3029,-5.3109,-5.3169,-5.3237,-5.3153,-5.3194,-5.3256,-5.3355,-5.3385,-5.345,-5.3559,-5.3642,-5.3631,-5.3707,-5.3778,-5.3743,-5.38,-5.3795,-5.3799,-5.3476,-5.3436,-5.3827,-5.3827,-5.3827,-5.3827,-5.3827,-5.3827,-5.324,-5.3393,-5.3369,-5.3533,-5.3539,-5.3646,-5.3677,-5.3714,-5.3737,-5.3863,-5.3931,-5.3922,-5.3936,-5.4012,-5.4084,-5.4079,-5.4112,-5.4184,-5.4165,-5.3864,-5.3821,-5.378,-5.3742,-5.4191,-5.4192,-5.448,-5.4483,-5.4485]},{"header":{"parameterUnit":"m.s-1","parameterCategory":1,"la1":30.2991,"la2":30.254,"lo1":-89.0895,"lo2":-89.0444,"dy":0.0017,"dx":0.0017,"nx":28,"ny":28,"refTime":"2024-10-18T09:00:00:Z","depth":0,"parameterNumber":3,"parameterNumberName":"V-component_of_WINDS"},"data":[0,0,0,0,0,0,0,0,0,0,0,0,0,0,0,0,0,0,0,0,0,0,0,0,0,0,0,0,0,0,0,0,0,0,0,0,0,0,0,0,0,0,0,0,0,0,0,0,0,0,0,0,0,0,0,0,0,0,-2.6132,-2.6132,0,-2.6147,-2.6147,-2.6147,-2.6135,-2.6134,-2.6134,-2.6133,-2.6147,-2.6148,-2.6148,0,0,0,0,0,0,0,0,0,0,0,0,0,-2.609,-2.6091,-2.6132,-2.6133,-2.6133,-2.6147,-2.6147,-2.6147,-2.6135,-2.6134,-2.6134,-2.6133,-2.6147,-2.6148,-2.6149,0,0,0,0,0,0,0,0,0,0,0,0,0,-2.6107,-2.6092,-2.6132,-2.6128,-2.6128,-2.6147,-2.6147,-2.6147,-2.6135,-2.6134,-2.6134,-2.6133,-2.6146,-2.6147,-2.6149,-2.6172,0,0,-2.6152,-2.6153,0,0,0,0,0,0,0,0,-2.6106,-2.6109,-2.6129,-2.6129,-2.6128,-2.6138,-2.6137,-2.6155,-2.6135,-2.6132,-2.6133,-2.6133,-2.6145,-2.6146,-2.615,-2.6172,-2.6173,-2.6153,-2.6153,-2.6154,-2.6154,0,0,0,0,0,0,0,-2.6105,-2.6108,-2.6138,-2.6129,-2.6129,-2.6125,-2.6126,-2.6141,-2.6143,-2.6133,-2.6132,-2.6134,-2.6144,-2.6149,-2.615,-2.6173,-2.6153,-2.6154,-2.6154,-2.6155,-2.6211,-2.6212,0,0,0,0,0,0,-2.6105,-2.6107,-2.6138,-2.6138,-2.6115,-2.6126,-2.6128,-2.6136,-2.6142,-2.6143,-2.6134,-2.6133,-2.6147,-2.6149,-2.6151,-2.6176,-2.6154,-2.6155,-2.6156,-2.6211,-2.6212,-2.6212,0,0,0,0,0,0,-2.6104,-2.6108,-2.6137,-2.6123,-2.6126,-2.6128,-2.6137,-2.6137,-2.6141,-2.6144,-2.6144,-2.6139,-2.6147,-2.6149,-2.6166,-2.6176,-2.6156,-2.6157,-2.621,-2.6211,-2.6212,-2.6228,0,0,0,0,0,0,-2.6103,-2.6107,-2.6117,-2.6123,-2.6127,-2.6153,-2.6138,-2.6137,-2.6144,-2.6142,-2.6148,-2.6148,-2.6146,-2.6164,-2.6167,-2.6178,-2.6158,-2.6209,-2.621,-2.6212,-2.6227,-2.623,-2.6232,0,0,0,0,0,-2.6101,-2.6121,-2.6118,-2.6121,-2.6139,-2.6154,-2.6156,-2.6154,-2.6145,-2.6154,-2.6155,-2.6148,-2.6175,-2.6166,-2.6169,-2.618,-2.6208,-2.621,-2.6211,-2.6225,-2.6229,-2.6232,0,0,0,0,0,0,-2.6117,-2.6122,-2.6118,-2.6141,-2.6147,-2.6152,-2.6163,-2.6158,-2.6166,-2.6164,-2.6161,-2.6162,-2.6179,-2.6182,-2.6172,-2.6201,-2.619,-2.6192,-2.6199,-2.6203,-2.6206,-2.6204,-2.6159,0,0,0,0,0,-2.6123,-2.6135,-2.6139,-2.6158,-2.6161,-2.6162,-2.6168,-2.6165,-2.6171,-2.6174,-2.6176,-2.6182,-2.6191,-2.6197,-2.6206,-2.6227,-2.6227,-2.6236,-2.6239,-2.6241,-2.6243,-2.6252,-2.6255,-2.6218,-2.6218,-2.6218,0,0,-2.6136,-2.614,-2.6148,-2.6161,-2.6166,-2.6177,-2.6164,-2.6177,-2.6185,-2.6176,-2.6191,-2.6193,-2.6199,-2.6217,-2.6225,-2.6219,-2.6253,-2.6243,-2.6245,-2.6246,-2.6254,-2.6257,-2.6261,-2.6219,-2.6219,-2.6219,0,0,-2.6164,-2.6169,-2.6185,-2.6189,-2.6196,-2.6196,-2.6199,-2.6204,-2.6205,-2.6221,-2.6213,-2.6222,-2.6239,-2.6243,-2.6247,-2.6274,-2.6267,-2.6277,-2.6291,-2.63,-2.6303,-2.6305,-2.6313,-2.6316,-2.6279,-2.6279,-2.6279,0,-2.6179,-2.6196,-2.6194,-2.6207,-2.6212,-2.6204,-2.6218,-2.6223,-2.6232,-2.6235,-2.6228,-2.6248,-2.6251,-2.6269,-2.6275,-2.628,-2.6282,-2.6276,-2.6303,-2.6305,-2.6307,-2.6315,-2.6318,-2.628,-2.628,-2.628,-2.6279,0,-2.6213,-2.6225,-2.6237,-2.6245,-2.6252,-2.6266,-2.6264,-2.627,-2.6267,-2.6267,-2.6281,-2.6285,-2.6293,-2.6297,-2.6295,-2.6314,-2.631,-2.6303,-2.6291,-2.6312,-2.6319,-2.6322,-2.6281,-2.6281,-2.6281,-2.628,0,0,-2.6253,-2.6258,-2.6262,-2.6265,-2.627,-2.6279,-2.6292,-2.63,-2.6305,-2.6311,-2.632,-2.6333,-2.6326,-2.6331,-2.6328,-2.6336,-2.6354,-2.6327,-2.6327,-2.6331,-2.6374,-2.6378,-2.6382,-2.635,-2.6351,-2.6351,-2.6373,0,-2.628,-2.6302,-2.6299,-2.632,-2.6329,-2.6321,-2.6331,-2.6335,-2.6335,-2.6342,-2.6341,-2.635,-2.6341,-2.6344,-2.6351,-2.635,-2.6363,-2.6349,-2.6357,-2.6357,-2.6355,-2.6385,-2.639,-2.6411,-2.6376,-2.6376,-2.6376,0,-2.6315,-2.6321,-2.6343,-2.6345,-2.6349,-2.6359,-2.6364,-2.6372,-2.6375,-2.6374,-2.6378,-2.6373,-2.6384,-2.6373,-2.6386,-2.6377,-2.638,-2.638,-2.6381,-2.6381,-2.6368,-2.6385,-2.6417,-2.642,-2.6381,-2.6381,-2.638,0,-2.6339,-2.6354,-2.6368,-2.637,-2.6373,-2.638,-2.6381,-2.6384,-2.6388,-2.6393,-2.6396,-2.6402,-2.6405,-2.6409,-2.6405,-2.6398,-2.6419,-2.6408,-2.6417,-2.6417,-2.6422,-2.6421,-2.6454,-2.6426,-2.6426,-2.6426,-2.6425,0,-2.6369,-2.6383,-2.6378,-2.6387,-2.64,-2.6396,-2.6409,-2.641,-2.6412,-2.6419,-2.6412,-2.6419,-2.6414,-2.642,-2.6417,-2.6428,-2.643,-2.6428,-2.6427,-2.6428,-2.6428,-2.6429,-2.6427,-2.6426,-2.6426,-2.6426,-2.6426,0,-2.6399,-2.6397,-2.6411,-2.6412,-2.6413,-2.6423,-2.6423,-2.643,-2.6429,-2.6438,-2.644,-2.6437,-2.6444,-2.6441,-2.6448,-2.6446,-2.6459,-2.6457,-2.6458,-2.6457,-2.6466,-2.6464,-2.65,-2.6503,-2.6474,-2.6474,-2.6474,0,-2.6418,-2.6427,-2.6429,-2.6433,-2.6435,-2.6443,-2.6447,-2.6442,-2.6446,-2.6449,-2.6456,-2.6462,-2.6466,-2.6477,-2.6475,-2.648,-2.6477,-2.6489,-2.6477,-2.6477,-2.6475,-2.6474,-2.6474,-2.6491,-2.6491,-2.6491,-2.6491,0,-2.6451,-2.6449,-2.6455,-2.646,-2.6465,-2.6469,-2.6472,-2.6476,-2.6471,-2.6476,-2.6482,-2.6486,-2.6492,-2.6498,-2.6501,-2.6502,-2.6495,-2.6495,-2.6497,-2.6498,-2.6498,-2.6496,-2.6462,-2.6494,-2.6494,-2.6494,-2.6493,-2.6493,-2.6474,-2.6481,-2.6483,-2.6489,-2.6491,-2.6494,-2.65,-2.6499,-2.6504,-2.6509,-2.6506,-2.6513,-2.6514,-2.6518,-2.6519,-2.6524,-2.6519,-2.6522,-2.6523,-2.6524,-2.6524,-2.6498,-2.6525,-2.6524,-2.6524,-2.6524,-2.6524,0,-2.6505,-2.6505,-2.6511,-2.6516,-2.652,-2.6514,-2.6516,-2.652,-2.6527,-2.6528,-2.6532,-2.6539,-2.6543,-2.6541,-2.6545,-2.6549,-2.6546,-2.655,-2.6549,-2.6549,-2.6529,-2.6526,-2.6552,-2.6552,-2.6552,-2.6552,-2.6552,-2.6552,-2.6522,-2.6533,-2.6531,-2.6542,-2.6542,-2.6549,-2.655,-2.6552,-2.6553,-2.656,-2.6564,-2.6563,-2.6562,-2.6566,-2.6569,-2.6568,-2.6569,-2.6574,-2.6572,-2.6554,-2.6551,-2.6548,-2.6545,-2.6575,-2.6575,-2.6591,-2.6592,-2.6592]}]]